Regional Weather Roundup
Issued by NWS

Home | Current Version | Previous Version | Graphics & Text | Print | Product List | Glossary On
Versions: 1 2 3 4 5 6 7 8 9 10 11 12 13 14 15 16 17 18 19 20 21 22 23 24 25 26 27 28 29 30 31 32 33 34 35 36 37 38 39 40 41 42 43 44 45 46 47 48 49 50
000
ASUS43 KIND 221909
RWRIN

WEATHER ROUNDUP FOR INDIANA
NATIONAL WEATHER SERVICE INDIANAPOLIS IN
200 PM EST THU FEB 22 2018

NOTE: "FAIR" INDICATES FEW OR NO CLOUDS BELOW 12,000 FEET WITH NO
SIGNIFICANT WEATHER AND/OR OBSTRUCTIONS TO VISIBILITY.

* - STATION DOES NOT REPORT WEATHER SUCH AS PRECIPITATION OR FOG.

+ - STATION NOT QUALITY CONTROLLED BY THE NATIONAL WEATHER SERVICE.
    USE DATA WITH CAUTION...ESPECIALLY DEWPOINT AND RELATIVE
    HUMIDITY OBSERVATIONS.

INZ001>003-010>013-019-020-222000-
NORTHWEST INDIANA

CITY           SKY/WX    TMP DP  RH WIND       PRES   REMARKS
GARY /AIRPORT/ PTSUNNY   41  32  70 NE16      30.48F
LA PORTE +     CLOUDY    40  32  74 E13       30.48F WCI  33
MICHIGAN CITY+ CLOUDY    43  32  65 E8        30.49F
MONTICELLO +   CLOUDY    43  37  79 E13G21    30.43S
RENSSELAER +   CLOUDY    43  36  75 E18       30.44F
VALPARAISO     CLOUDY    43  34  70 E15       30.48F

$$

LMZ046-743>745-222000-
SOUTHERN LAKE MICHIGAN

STATION/POSITION TIME  TEMP    WIND        PRES    WAVE
                       AIR SEA DIR/SP/G            HT
                 (UTC) (F)     (DEG/KT/KT) (MB)    (FT)
BURNS HARBOR     1840   35      40/ 11/ 13 1032.8F
MICHIGAN CITY    1840   38      60/  9/ 12   N/A

$$

INZ004-005-014>016-021>024-222000-
NORTH CENTRAL INDIANA

CITY           SKY/WX    TMP DP  RH WIND       PRES   REMARKS
ELKHART        PTSUNNY   41  30  65 E12       30.49F
GOSHEN         CLOUDY    41  32  70 E15       30.49F
LOGANSPORT +   CLOUDY    41  36  81 E17       30.44F
PERU/GRISSOM   CLOUDY    43  43 100 E17G26    30.43F
ROCHESTER +    CLOUDY    43  36  75 E20       30.47F
SOUTH BEND     CLOUDY    42  30  62 E12       30.49F
WARSAW +       CLOUDY    39  34  81 NE14G20   30.48F WCI  31

$$

INZ006>009-017-018-025>027-222000-
NORTHEAST INDIANA

CITY           SKY/WX    TMP DP  RH WIND       PRES   REMARKS
AUBURN +       CLOUDY    37  34  87 E13G21    30.50F WCI  29
FORT WAYNE     CLOUDY    39  36  89 E16       30.48F WCI  30
HUNTINGTON +   CLOUDY    39  35  85 E12G20    30.46F WCI  31
KENDALLVILLE + CLOUDY    38  33  81 E14       30.49F WCI  30

$$

INZ028-029-035-036-043>045-051>053-222000-
WEST CENTRAL INDIANA

CITY           SKY/WX    TMP DP  RH WIND       PRES   REMARKS
CRAWFORDSVL +  CLOUDY    41  41 100 E15G23      N/A
GREENCASTLE +  CLOUDY    41  37  87 E9        30.41F
LAFAYETTE      CLOUDY    45  39  79 E22       30.41F
TERRE HAUTE    CLOUDY    45  40  82 E10       30.39F

$$

INZ030>032-037>040-046>048-054>057-064-065-222000-
CENTRAL INDIANA

CITY           SKY/WX    TMP DP  RH WIND       PRES   REMARKS
ANDERSON       CLOUDY    41  37  87 E12G23    30.44F
COLUMBUS       CLOUDY    43 N/A N/A E13       30.42S
FISHERS *+     CLOUDY    43  43 100 SE15      30.42
GREENWOOD *+   CLOUDY    40 -48   2 E13G20    30.42S WCI  33
INDIANAPOLIS   CLOUDY    44  38  79 E14       30.42R
-EAGLE CREEK   CLOUDY    44  37  76 E14G23    30.41S
KOKOMO +       CLOUDY    43  39  86 E20       30.43F
MARION +       CLOUDY    41  37  85 E17G23    30.44F
MT COMFORT *+  CLOUDY    43  41  93 E13G20    30.42F
SHELBYVILLE    CLOUDY    44  39  82 E15       30.41S
ZIONSVILLE +   CLOUDY    41  38  89 E15G22    30.42F

$$

INZ033-034-041-042-049-050-058-059-222000-
EAST CENTRAL INDIANA

CITY           SKY/WX    TMP DP  RH WIND       PRES   REMARKS
MUNCIE         CLOUDY    45  40  82 E15       30.43F
RICHMOND +     CLOUDY    39  39 100 E15       30.42F WCI  31

$$

INZ060-061-067>069-081>083-085>088-222000-
SOUTHWEST INDIANA

CITY           SKY/WX    TMP DP  RH WIND       PRES   REMARKS
EVANSVILLE     CLOUDY    48  47  96 E5        30.36F
HUNTINGBURG +  CLOUDY    48  45  89 E8        30.37F
WASHINGTON +   CLOUDY    47  44  90 E9        30.37S

$$

INZ062-063-066-070>080-084-089>092-222000-
SOUTH CENTRAL AND SOUTHEAST INDIANA

CITY           SKY/WX    TMP DP  RH WIND       PRES   REMARKS
BATESVILLE +   CLOUDY    43  43 100 MISG      30.40F
BEDFORD +      CLOUDY    45  41  87 E8        30.38F
BLOOMINGTON    CLOUDY    44  40  85 E13       30.38F
FRENCH LICK *+ CLOUDY    45 N/A N/A E6        30.36F
MADISON *+     CLOUDY    45  41  87 E5        30.41S
NORTH VERNON + CLOUDY    45  41  87 E6        30.41S
SEYMOUR +      CLOUDY    48  41  76 E9        30.39F

$$





USA.gov is the U.S. government's official web portal to all federal, state and local government web resources and services.